Voltar ao catálogo

STARLINK-36156

AtivoComunicaçõesVLEO
NORAD 67006·PAYLOAD·🇺🇸 United States

Lançado Dec 10, 2025 de Vandenberg Space Force Base

Loading…

Próximas Passagens (próximas 24 horas)

TLE

AtualizadoSource: CelesTrak SupGP

Época: Sep 14, 2026, 21:34 UTC

1 67006C 25293D   26257.89909722 -.00044140  00000+0 -37001-2 0  2572
2 67006  70.0019 337.5436 0003473 270.1818 169.3131 14.98341457    14

Acompanhe STARLINK-36156 em tempo real com AllMySat

Download on the App Store